Beeville, TX

1:04 PM CST on February 23, 2017 (GMT -0600)
Beeville

Weather History for KBEA - November, 2012

Change the Weather History Date:

Monday, November 19, 2012

  Actual Average (KCRP) Record (KCRP)
Temperature  
Mean Temperature 65 °F -  
Max Temperature 77 °F 72 °F 90 °F (1953)
Min Temperature 53 °F 54 °F 34 °F (1959)
Growing Degree Days 15 (Base 50)    
Moisture  
Dew Point 56 °F    
Average Humidity 76    
Maximum Humidity 100    
Minimum Humidity 47    
Precipitation  
Precipitation 0.00 in - - ()
Sea Level Pressure  
Sea Level Pressure 30.19 in    
Wind  
Wind Speed 5 mph (ESE)    
Max Wind Speed 8 mph    
Max Gust Speed -    
Visibility 10 miles    
Events      
Averages and records for this station are not official NWS values.
T = Trace of Precipitation, MM = Missing Value Source: NWS Daily Summary

Daily Weather History Graph

Daily Weather History Graph

Search for Another Location

Airport or City:

Trip Planner

Search our weather history database for the weather conditions in past years. The results will help you decide how hot, cold, wet, or windy it might be!

Date:

Astronomy

Nov. 19, 2012 Rise Set
Actual Time 6:56 AM CST 5:36 PM CST
Civil Twilight 6:31 AM CST 6:01 PM CST
Nautical Twilight 6:03 AM CST 6:29 PM CST
Astronomical Twilight 5:35 AM CST 6:58 PM CST
Moon 12:11 PM CST (11/19) 11:51 PM CST (11/19)
Length of Visible Light 11h 29m
Length of Day
10h 39m
Waxing Crescent, 41% of the Moon is Illuminated
Nov 19
Waxing Crescent
Nov 20
First Quarter
Nov 28
Full
Dec 6
Last Quarter
Dec 13
New

Hourly Weather History & Observations

Time (CST) Temp. Dew Point Humidity Pressure Visibility Wind Dir Wind Speed Gust Speed Precip Events Conditions
12:15 AM 59.0 °F 53.6 °F 82% 30.21 in 10.0 mi East 4.6 mph - N/A   Clear
12:35 AM 59.0 °F 53.6 °F 82% 30.19 in 10.0 mi ESE 5.8 mph - N/A   Clear
12:55 AM 59.0 °F 53.6 °F 82% 30.20 in 10.0 mi East 3.5 mph - N/A   Clear
1:15 AM 59.0 °F 53.6 °F 82% 30.21 in 10.0 mi East 3.5 mph - N/A   Clear
1:35 AM 57.2 °F 53.6 °F 88% 30.21 in 10.0 mi ENE 4.6 mph - N/A   Clear
1:55 AM 55.4 °F 53.6 °F 94% 30.21 in 10.0 mi ENE 4.6 mph - N/A   Clear
2:15 AM 55.4 °F 55.4 °F 100% 30.20 in 10.0 mi ENE 5.8 mph - N/A   Clear
2:35 AM 55.4 °F 55.4 °F 100% 30.19 in 10.0 mi East 5.8 mph - N/A   Clear
2:55 AM 55.4 °F 53.6 °F 94% 30.19 in 10.0 mi ENE 4.6 mph - N/A   Clear
3:15 AM 55.4 °F 53.6 °F 94% 30.18 in 10.0 mi ENE 4.6 mph - N/A   Clear
3:35 AM 55.4 °F 55.4 °F 100% 30.19 in 10.0 mi NE 4.6 mph - N/A   Clear
3:55 AM 55.4 °F 55.4 °F 100% 30.19 in 10.0 mi ENE 4.6 mph - N/A   Clear
4:15 AM 55.4 °F 53.6 °F 94% 30.18 in 10.0 mi ENE 4.6 mph - N/A   Clear
4:35 AM 53.6 °F 53.6 °F 100% 30.19 in 10.0 mi NE 4.6 mph - N/A   Clear
4:55 AM 55.4 °F 55.4 °F 100% 30.19 in 10.0 mi NE 4.6 mph - N/A   Clear
5:15 AM 55.4 °F 55.4 °F 100% 30.19 in 10.0 mi ENE 5.8 mph - N/A   Clear
5:35 AM 53.6 °F 53.6 °F 100% 30.19 in 10.0 mi ENE 4.6 mph - N/A   Scattered Clouds
5:55 AM 55.4 °F 55.4 °F 100% 30.19 in 10.0 mi ENE 5.8 mph - N/A   Mostly Cloudy
6:15 AM 55.4 °F 55.4 °F 100% 30.19 in 10.0 mi ENE 5.8 mph - N/A   Overcast
6:35 AM 57.2 °F 57.2 °F 100% 30.20 in 10.0 mi ENE 3.5 mph - N/A   Overcast
6:55 AM 59.0 °F 57.2 °F 94% 30.21 in 10.0 mi East 3.5 mph - N/A   Overcast
7:35 AM 59.0 °F 57.2 °F 94% 30.23 in 10.0 mi East 3.5 mph - N/A   Overcast
7:55 AM 59.0 °F 57.2 °F 94% 30.23 in 10.0 mi East 3.5 mph - N/A   Overcast
8:15 AM 60.8 °F 57.2 °F 88% 30.24 in 10.0 mi East 4.6 mph - N/A   Overcast
8:35 AM 60.8 °F 57.2 °F 88% 30.24 in 10.0 mi ENE 3.5 mph - N/A   Overcast
8:55 AM 62.6 °F 57.2 °F 82% 30.24 in 10.0 mi East 3.5 mph - N/A   Overcast
9:15 AM 62.6 °F 57.2 °F 82% 30.25 in 10.0 mi East 3.5 mph - N/A   Overcast
9:35 AM 64.4 °F 57.2 °F 77% 30.26 in 10.0 mi ENE 3.5 mph - N/A   Overcast
9:55 AM 66.2 °F 57.2 °F 73% 30.26 in 10.0 mi East 5.8 mph - N/A   Overcast
10:15 AM 68.0 °F 57.2 °F 68% 30.25 in 10.0 mi East 6.9 mph - N/A   Overcast
10:35 AM 69.8 °F 57.2 °F 64% 30.25 in 10.0 mi ESE 6.9 mph - N/A   Overcast
10:55 AM 71.6 °F 57.2 °F 60% 30.25 in 10.0 mi ESE 8.1 mph - N/A   Overcast
11:15 AM 71.6 °F 55.4 °F 57% 30.24 in 10.0 mi SE 6.9 mph - N/A   Overcast
11:35 AM 73.4 °F 55.4 °F 53% 30.24 in 10.0 mi SSE 6.9 mph - N/A   Overcast
11:55 AM 71.6 °F 55.4 °F 57% 30.23 in 10.0 mi SSE 6.9 mph - N/A   Overcast
12:15 PM 73.4 °F 55.4 °F 53% 30.23 in 10.0 mi SE 5.8 mph - N/A   Overcast
12:35 PM 73.4 °F 55.4 °F 53% 30.21 in 10.0 mi SE 5.8 mph - N/A   Overcast
12:55 PM 75.2 °F 55.4 °F 50% 30.19 in 10.0 mi ESE 3.5 mph - N/A   Overcast
1:15 PM 73.4 °F 53.6 °F 50% 30.19 in 10.0 mi Calm Calm - N/A   Overcast
1:35 PM 75.2 °F 55.4 °F 50% 30.17 in 10.0 mi SSE 6.9 mph - N/A   Overcast
1:55 PM 77.0 °F 55.4 °F 47% 30.16 in 10.0 mi ESE 8.1 mph - N/A   Overcast
2:15 PM 77.0 °F 55.4 °F 47% 30.16 in 10.0 mi Calm Calm - N/A   Overcast
2:35 PM 77.0 °F 55.4 °F 47% 30.15 in 10.0 mi Calm Calm - N/A   Overcast
2:55 PM 77.0 °F 55.4 °F 47% 30.14 in 10.0 mi Calm Calm - N/A   Overcast
3:15 PM 77.0 °F 55.4 °F 47% 30.14 in 10.0 mi South 8.1 mph - N/A   Overcast
3:35 PM 77.0 °F 55.4 °F 47% 30.13 in 10.0 mi ESE 3.5 mph - N/A   Overcast
3:55 PM 77.0 °F 55.4 °F 47% 30.14 in 10.0 mi SE 3.5 mph - N/A   Overcast
4:15 PM 77.0 °F 55.4 °F 47% 30.13 in 10.0 mi SE 8.1 mph - N/A   Overcast
4:35 PM 77.0 °F 55.4 °F 47% 30.13 in 10.0 mi SE 8.1 mph - N/A   Overcast
4:55 PM 75.2 °F 55.4 °F 50% 30.13 in 10.0 mi ESE 6.9 mph - N/A   Overcast
5:15 PM 73.4 °F 55.4 °F 53% 30.14 in 10.0 mi SE 6.9 mph - N/A   Overcast
5:35 PM 71.6 °F 55.4 °F 57% 30.14 in 10.0 mi SE 8.1 mph - N/A   Mostly Cloudy
5:55 PM 71.6 °F 55.4 °F 57% 30.15 in 10.0 mi SE 5.8 mph - N/A   Mostly Cloudy
6:35 PM 69.8 °F 55.4 °F 60% 30.17 in 10.0 mi SE 8.1 mph - N/A   Mostly Cloudy
6:55 PM 68.0 °F 57.2 °F 68% 30.18 in 10.0 mi SE 5.8 mph - N/A   Scattered Clouds
7:15 PM 68.0 °F 57.2 °F 68% 30.18 in 10.0 mi SE 5.8 mph - N/A   Clear
7:35 PM 66.2 °F 57.2 °F 73% 30.19 in 10.0 mi SE 4.6 mph - N/A   Scattered Clouds
7:55 PM 66.2 °F 57.2 °F 73% 30.19 in 10.0 mi SE 4.6 mph - N/A   Mostly Cloudy
8:15 PM 64.4 °F 57.2 °F 77% 30.19 in 10.0 mi SE 4.6 mph - N/A   Scattered Clouds
8:35 PM 62.6 °F 59.0 °F 88% 30.19 in 10.0 mi SE 4.6 mph - N/A   Clear
8:55 PM 64.4 °F 59.0 °F 83% 30.19 in 10.0 mi SE 4.6 mph - N/A   Clear
9:15 PM 64.4 °F 59.0 °F 83% 30.19 in 10.0 mi SE 4.6 mph - N/A   Clear
9:35 PM 62.6 °F 59.0 °F 88% 30.19 in 10.0 mi SE 4.6 mph - N/A   Clear
9:55 PM 62.6 °F 59.0 °F 88% 30.19 in 10.0 mi Calm Calm - N/A   Clear
10:15 PM 62.6 °F 60.8 °F 94% 30.18 in 10.0 mi ESE 3.5 mph - N/A   Clear
10:35 PM 62.6 °F 60.8 °F 94% 30.18 in 10.0 mi Calm Calm - N/A   Clear
10:55 PM 62.6 °F 60.8 °F 94% 30.18 in 10.0 mi Calm Calm - N/A   Clear
11:15 PM 60.8 °F 60.8 °F 100% 30.18 in 10.0 mi Calm Calm - N/A   Clear
11:35 PM 60.8 °F 60.8 °F 100% 30.17 in 10.0 mi Calm Calm - N/A   Clear
11:55 PM 60.8 °F 60.8 °F 100% 30.17 in 10.0 mi Calm Calm - N/A   Clear